Overview Statistics Trail Chart Weather Telemetry Raw packets
 

This is the latest recevied weather packets stored in our database for station/object SM4JDW-10. If no packets are shown the sender has not sent any weather packets the latest 10 day(s).

<< 11 12 13 14 15 16 17 >>
Time Temp. Humidity Pressure Rain* Wind** Luminosity Snow
1788045549 15.56° C 81% 1000.3 hPa - - - -
1788043749 15.56° C 80% 1000.3 hPa - - - -
1788041949 15.56° C 81% 1000.5 hPa - - - -
1788040149 15.56° C 79% 1000.5 hPa - - - -
1788038349 15.56° C 79% 1000.7 hPa - - - -
1788036549 15.56° C 78% 1000.7 hPa - - - -
1788034749 16.11° C 79% 1000.8 hPa - - - -
1788032949 16.11° C 78% 1000.9 hPa - - - -
1788031157 16.67° C 78% 1001 hPa - - - -
1788029348 16.67° C 78% 1000.9 hPa - - - -
1788027548 17.22° C 76% 1001 hPa - - - -
1788025748 17.78° C 76% 1001.2 hPa - - - -
1788023948 17.78° C 75% 1001.4 hPa - - - -
1788022149 18.33° C 75% 1001.3 hPa - - - -
1788020349 18.33° C 75% 1001.3 hPa - - - -
1788018548 18.33° C 75% 1001.5 hPa - - - -
1788016749 18.33° C 76% 1001.5 hPa - - - -
1788014948 18.33° C 75% 1001.7 hPa - - - -
1788013148 18.33° C 75% 1001.9 hPa - - - -
1788011348 18.33° C 76% 1001.8 hPa - - - -
1788009548 17.78° C 78% 1001.7 hPa - - - -
1788007747 17.78° C 77% 1001.9 hPa - - - -
1788005948 17.78° C 76% 1002.1 hPa - - - -
1788004147 17.22° C 79% 1002.3 hPa - - - -
1788002347 17.22° C 80% 1002.3 hPa - - - -

* Rain since midnight (hover to see other rain measurements)
** Current wind speed in m/s (hover to see current wind gust speed)